Torna al catalogo

DELTA 1 DEB

AttivoSSO
NORAD 5443·DEBRIS·🇺🇸 United States

Lanciato Nov 10, 1967 da Vandenberg Space Force Base

Loading…

Prossimi Passaggi (prossime 24 ore)

TLE

AggiornatoSource: Space-Track

Epoca: Sep 13, 2026, 09:12 UTC

1 05443U 67114E   26256.38365069 -.00000027  00000-0  98269-4 0  9994
2 05443 101.4230 208.3469 0061682 211.5514 301.0345 12.56814450698334

Traccia DELTA 1 DEB in tempo reale con AllMySat

Download on the App Store